Location: Proctor
(47.8934°N, 114.3048°W)
Time: 12:30:44
(UTC+00:00)

AIST 2D - Pass Details

Date: 06 July 2022
Orbit: 433 x 443 km, 97.0° (Epoch: 11 August)

Event Time Altitude Azimuth Distance (km) Brightness Sun altitude
Rises 06:33:23 0° 353° (N) 2,430 ? -17.8°
Reaches altitude 10° 06:36:25 10° 321° (NW) 1,557 ? -17.9°
Maximum altitude 06:37:46 12° 297° (WNW) 1,434 ? -18.0°
Drops below altitude 10° 06:39:07 10° 273° (W) 1,555 ? -18.0°
Enters shadow 06:41:36 - 245° (WSW) 2,230 ? -18.1°
